Home   Weather   Gafsa   Past weeks
Flag for Tunisia

Past Weather in Gafsa, Tunisia — Yesterday and Last 2 Weeks

Now
61 °F

Scattered clouds.


Feels Like: 61 °F
Forecast: 83 / 56 °F
Wind: 3 mph from West

Location: Gafsa Airport

Current Time: May 27, 2019 at 6:57:12 am

Latest Report: May 27, 2019 at 6:00 am


Visibility: N/A

Pressure: 29.83 "Hg

Humidity: 55%

Dew Point: 45 °F

Location of GafsaLocation

Past Weather in Gafsa — Graph

°F

Gafsa Temperature Yesterday

Maximum temperature yesterday: 73 °F (at 5:00 pm)
Minimum temperature yesterday: 61 °F (at 1:00 am)
Average temperature yesterday: 66 °F

High & Low Weather Summary for the Past Weeks

 TemperatureHumidityPressure
High88 °F (May 17, 2:00 pm)88% (May 25, 2:00 am)30.07 "Hg (May 25, 2:00 am)
Low54 °F (May 15, 6:00 am)5% (May 16, 5:00 pm)29.59 "Hg (May 17, 5:00 pm)
Average70 °F44%29.87 "Hg
* Reported May 12 6:00 am — May 27 6:00 am, Gafsa. Weather by CustomWeather, © 2019

Note: Actual official high and low records may vary slightly from our data, if they occured in-between our weather recording intervals... More about our weather records

Advertising

Gafsa Weather History for the Previous 24 Hours

Scroll right to see more
 ConditionsComfort  
Time TempWeatherWind HumidityBarometerVisibility
6:00 am
Mon, May 27
61 °FScattered clouds.3 mph55%29.83 "HgN/A
5:00 am63 °FPassing clouds.6 mph52%29.83 "HgN/A
4:00 am63 °FPassing clouds.5 mph52%29.83 "HgN/A
3:00 am61 °FClear.5 mph59%29.83 "Hg10 mi
2:00 am63 °FPassing clouds.9 mph56%29.83 "HgN/A
1:00 am64 °FPassing clouds.6 mph52%29.86 "HgN/A
12:00 am64 °FPassing clouds.13 mph52%29.83 "HgN/A
11:00 pm
Sun, May 26
66 °FPassing clouds.10 mph49%29.83 "HgN/A
10:00 pm66 °FPassing clouds.7 mph49%29.83 "HgN/A
9:00 pm66 °FPassing clouds.5 mph56%29.80 "HgN/A
8:00 pm68 °FPassing clouds.6 mph49%29.80 "HgN/A
7:00 pm70 °FScattered clouds.9 mph40%29.77 "HgN/A
6:00 pm70 °FScattered clouds.18 mph40%29.74 "HgN/A
5:00 pm73 °FScattered clouds.9 mph41%29.74 "HgN/A
4:00 pm72 °FScattered clouds.3 mph57%29.74 "HgN/A
3:00 pm68 °FScattered clouds.6 mph64%29.74 "HgN/A
2:00 pm66 °FScattered clouds.12 mph64%29.77 "HgN/A
1:00 pm68 °FScattered clouds.16 mph53%29.77 "HgN/A
12:00 pm68 °FScattered clouds.18 mph53%29.77 "HgN/A
11:00 am68 °FScattered clouds.17 mph53%29.74 "HgN/A
10:00 am68 °FScattered clouds.22 mph53%29.74 "HgN/A
8:00 am63 °FScattered clouds.15 mph68%29.74 "HgN/A
7:00 am61 °FPartly sunny.13 mph72%29.74 "HgN/A
6:00 am61 °FPartly sunny.14 mph72%29.74 "HgN/A
Weather by CustomWeather, © 2019

See weather overview